Weatherford, Texas, United States (76085)
Lat: 32.76N, Lon: 97.8W
Wx Zone: TXZ117
Local Info
Past Weather Observations for Yesterday

NOTE: This archive is for the closest National Weather Service station to Weatherford. Information may differ from the station used for current weather conditions.

Time Weather Temperature Dewpoint Humidity Pressure Winds Precip Visibility
23:53
Clear
63°F / 17°C 55°F / 13°C 77% 29.95 in
(1014 mb)
SE 6.9 mph
(SE 11 kph)
- 10SM
22:53
Clear
63°F / 17°C 55°F / 13°C 77% 29.95 in
(1014 mb)
SE 5.8 mph
(SE 9 kph)
- 10SM
21:53
Clear
66°F / 19°C 55°F / 13°C 68% 29.95 in
(1014 mb)
SE 6.9 mph
(SE 11 kph)
- 10SM
20:53
Clear
66°F / 19°C 54°F / 12°C 64% 29.95 in
(1014 mb)
ESE 5.8 mph
(ESE 9 kph)
- 10SM
19:53
Clear
72°F / 22°C 52°F / 11°C 50% 29.95 in
(1014 mb)
E 6.9 mph
(E 11 kph)
- 10SM
18:53
Clear
75°F / 24°C 50°F / 10°C 41% 29.92 in
(1013 mb)
E 5.8 mph
(E 9 kph)
- 10SM
17:53
Clear
81°F / 27°C 52°F / 11°C 37% 29.92 in
(1013 mb)
ESE 5.8 mph
(ESE 9 kph)
- 10SM
16:53
Clear
82°F / 28°C 52°F / 11°C 35% 29.95 in
(1014 mb)
E 10.4 mph
(E 17 kph)
- 10SM
15:53
Clear
82°F / 28°C 52°F / 11°C 35% 29.98 in
(1015 mb)
Variable 4.6 mph
(Variable 7 kph)
- 10SM
14:53
Clear
81°F / 27°C 50°F / 10°C 34% 29.98 in
(1015 mb)
Calm - 10SM
13:53
Clear
81°F / 27°C 52°F / 11°C 37% 30.01 in
(1016 mb)
Calm - 10SM
12:53
Clear
81°F / 27°C 54°F / 12°C 39% 30.04 in
(1017 mb)
NE 9.2 mph
(NE 15 kph)
- 10SM
11:53
Clear
79°F / 26°C 55°F / 13°C 45% 30.06 in
(1018 mb)
ENE 10.4 mph
(ENE 17 kph)
- 10SM
10:53
Clear
77°F / 25°C 57°F / 14°C 51% 30.06 in
(1018 mb)
NE 10.4 mph
(NE 17 kph)
- 10SM
09:53
Clear
75°F / 24°C 57°F / 14°C 54% 30.09 in
(1019 mb)
ENE 11.5 mph
(ENE 19 kph)
- 10SM
08:53
Clear
73°F / 23°C 59°F / 15°C 61% 30.09 in
(1019 mb)
ENE 9.2 mph
(ENE 15 kph)
- 10SM
07:53
Clear
66°F / 19°C 59°F / 15°C 78% 30.09 in
(1019 mb)
Calm - 10SM
06:53
Clear
59°F / 15°C 57°F / 14°C 94% 30.06 in
(1018 mb)
SSW 3.5 mph
(SSW 6 kph)
- 10SM
05:53
Clear
55°F / 13°C 55°F / 13°C 100% 30.04 in
(1017 mb)
NW 3.5 mph
(NW 6 kph)
- 7SM
04:53
Clear
57°F / 14°C 57°F / 14°C 100% 30.04 in
(1017 mb)
Calm - 9SM
03:53
Clear
57°F / 14°C 55°F / 13°C 94% 30.04 in
(1017 mb)
Calm - 10SM
02:53
Clear
61°F / 16°C 57°F / 14°C 88% 30.04 in
(1017 mb)
Calm - 10SM
01:53
Clear
61°F / 16°C 57°F / 14°C 88% 30.01 in
(1016 mb)
W 4.6 mph
(W 7 kph)
- 10SM
00:53
Clear
61°F / 16°C 59°F / 15°C 94% 30.04 in
(1017 mb)
WNW 3.5 mph
(WNW 6 kph)
- 10SM
Time Weather Temperature Dewpoint Humidity Pressure Winds Precip Visibility


Weather for websites

WeatherForYou.com, LLC is not responsible for any damages or problems caused by this service. Current weather conditions are obtained from the closest station including government and personal stations which may have varying degrees of accuracy. Weather forecasts are derived from the NOAA NDFD. Like all things, this site belongs to Jesus Christ... He just trusts me to maintain it. If you have any questions or comments email webmaster@weatherforyou.com

Copyright © 2014, WeatherForYou.com LLC. All rights reserved.